Volver al catálogo

FENGYUN 2D

ActivoMeteoGEO
NORAD 29640·PAYLOAD·🇨🇳 China

Lanzado Dec 8, 2006 desde Xichang Satellite Launch Center

Loading…

TLE

ActualizadoSource: Space-Track

Época: Sep 14, 2026, 07:34 UTC

1 29640U 06053A   26257.31537782 -.00000169  00000-0  00000-0 0  9990
2 29640  11.1602  40.3059 0008836  38.4969 156.6955  0.98194139 71873

Sigue FENGYUN 2D en tiempo real con AllMySat

Download on the App Store